Location: Cactus School
(34.5700°N, 118.0931°W)
Time: 21:10:14
(UTC-07:00)

Vanguard 2 - Pass Details

Date: 24 April 2024
Orbit: 553 x 2914 km, 32.9° (Epoch: 18 May)

Event Time Altitude Azimuth Distance (km) Brightness Sun altitude
Exits shadow 03:10:06 40° 258° (WSW) 3,407 10.3 -31.9°
Maximum altitude 03:17:56 84° 175° (S) 2,837 10.1 -30.9°
Drops below altitude 10° 03:35:53 10° 90° (E) 5,600 12.4 -28.3°
Sets 03:39:57 0° 90° (E) 6,469 12.9 -27.6°
